Shelby, NC

7:37 PM EST on November 23, 2017 (GMT -0500)
Shelby Municipal

Weather History for KEHO - May, 2013

Change the Weather History Date:

Sunday, May 26, 2013

  Actual Average (KHKY) Record (KHKY)
Temperature  
Mean Temperature 64 °F -  
Max Temperature 74 °F 77 °F 94 °F (1953)
Min Temperature 55 °F 58 °F 44 °F (1988)
Growing Degree Days 14 (Base 50)    
Moisture  
Dew Point 47 °F    
Average Humidity 56    
Maximum Humidity 77    
Minimum Humidity 40    
Precipitation  
Precipitation 0.00 in - - ()
Sea Level Pressure  
Sea Level Pressure 30.23 in    
Wind  
Wind Speed 2 mph (ESE)    
Max Wind Speed 8 mph    
Max Gust Speed -    
Visibility 10 miles    
Events Rain    
Averages and records for this station are not official NWS values.
T = Trace of Precipitation, MM = Missing Value Source: NWS Daily Summary

Daily Weather History Graph

Daily Weather History Graph

Search for Another Location

Airport or City:

Trip Planner

Search our weather history database for the weather conditions in past years. The results will help you decide how hot, cold, wet, or windy it might be!

Date:

Astronomy

May. 26, 2013 Rise Set
Actual Time 6:15 AM EDT 8:32 PM EDT
Civil Twilight 5:46 AM EDT 9:01 PM EDT
Nautical Twilight 5:10 AM EDT 9:36 PM EDT
Astronomical Twilight 4:32 AM EDT 10:15 PM EDT
Moon 10:19 PM EDT (5/26) 7:42 AM EDT (5/26)
Length of Visible Light 15h 14m
Length of Day
14h 16m
Waning Gibbous, 97% of the Moon is Illuminated
May 26
Waning Gibbous
May 31
Last Quarter
Jun 8
New
Jun 16
First Quarter
Jun 23
Full

Hourly Weather History & Observations

Time (EDT) Temp. Dew Point Humidity Pressure Visibility Wind Dir Wind Speed Gust Speed Precip Events Conditions
12:15 AM 57.4 °F 47.5 °F 70% 30.21 in 10.0 mi Calm Calm - N/A   Clear
12:35 AM 55.2 °F 47.3 °F 75% 30.21 in 10.0 mi Calm Calm - N/A   Mostly Cloudy
12:55 AM 58.1 °F 45.3 °F 62% 30.21 in 10.0 mi Calm Calm - N/A   Mostly Cloudy
1:15 AM 55.8 °F 47.1 °F 73% 30.21 in 10.0 mi Calm Calm - N/A   Overcast
1:35 AM 57.4 °F 46.6 °F 67% 30.20 in 10.0 mi Calm Calm - N/A   Overcast
1:55 AM 57.0 °F 49.3 °F 75% 30.21 in 10.0 mi NNE 3.5 mph - N/A   Overcast
2:15 AM 57.2 °F 47.7 °F 70% 30.21 in 10.0 mi NE 3.5 mph - N/A   Overcast
2:35 AM 58.6 °F 46.0 °F 63% 30.21 in 10.0 mi Calm Calm - N/A   Overcast
2:55 AM 56.5 °F 49.3 °F 77% 30.20 in 10.0 mi NE 4.6 mph - N/A   Overcast
3:15 AM 57.2 °F 48.4 °F 72% 30.20 in 10.0 mi NE 4.6 mph - N/A   Mostly Cloudy
3:35 AM 58.5 °F 44.6 °F 60% 30.20 in 10.0 mi NE 4.6 mph - N/A   Mostly Cloudy
3:55 AM 59.7 °F 44.1 °F 56% 30.20 in 10.0 mi East 3.5 mph - N/A   Mostly Cloudy
4:15 AM 59.2 °F 43.5 °F 56% 30.20 in 10.0 mi NE 4.6 mph - N/A   Mostly Cloudy
4:35 AM 58.3 °F 43.2 °F 57% 30.20 in 10.0 mi ENE 6.9 mph - N/A   Overcast
4:55 AM 58.5 °F 42.8 °F 56% 30.21 in 10.0 mi NE 5.8 mph - N/A   Overcast
5:15 AM 58.5 °F 42.3 °F 55% 30.21 in 10.0 mi ENE 5.8 mph - N/A   Overcast
5:35 AM 58.3 °F 41.7 °F 54% 30.23 in 10.0 mi NE 5.8 mph - N/A   Overcast
5:55 AM 57.9 °F 41.0 °F 53% 30.24 in 10.0 mi NE 6.9 mph - N/A   Overcast
6:15 AM 57.7 °F 41.4 °F 54% 30.26 in 10.0 mi NE 5.8 mph - N/A   Overcast
6:35 AM 57.2 °F 41.4 °F 55% 30.26 in 10.0 mi NE 4.6 mph - N/A   Mostly Cloudy
6:55 AM 57.2 °F 41.7 °F 56% 30.27 in 10.0 mi NE 4.6 mph - N/A   Mostly Cloudy
7:15 AM 57.6 °F 41.7 °F 56% 30.27 in 10.0 mi East 3.5 mph - N/A Rain Light Rain
7:35 AM 55.6 °F 45.0 °F 67% 30.27 in 10.0 mi East 3.5 mph - N/A   Mostly Cloudy
7:55 AM 57.0 °F 45.9 °F 66% 30.28 in 10.0 mi Calm Calm - N/A   Mostly Cloudy
8:15 AM 57.7 °F 45.9 °F 65% 30.29 in 10.0 mi Calm Calm - N/A   Mostly Cloudy
8:35 AM 58.5 °F 45.9 °F 63% 30.29 in 10.0 mi Calm Calm - N/A   Mostly Cloudy
8:55 AM 59.0 °F 46.2 °F 63% 30.29 in 10.0 mi Calm Calm - N/A   Mostly Cloudy
9:15 AM 59.4 °F 45.3 °F 60% 30.31 in 10.0 mi Calm Calm - N/A   Mostly Cloudy
9:35 AM 60.1 °F 46.0 °F 60% 30.30 in 10.0 mi Calm Calm - N/A   Mostly Cloudy
9:55 AM 60.1 °F 47.5 °F 63% 30.30 in 10.0 mi Calm Calm - N/A   Overcast
10:15 AM 60.1 °F 46.4 °F 61% 30.31 in 10.0 mi Calm Calm - N/A Rain Light Rain
10:35 AM 60.3 °F 47.3 °F 62% 30.31 in 10.0 mi Calm Calm - N/A Rain Light Rain
10:55 AM 61.3 °F 46.8 °F 59% 30.30 in 10.0 mi Calm Calm - N/A   Overcast
11:15 AM 61.9 °F 46.0 °F 56% 30.30 in 10.0 mi Calm Calm - N/A   Overcast
11:35 AM 62.2 °F 46.0 °F 55% 30.30 in 10.0 mi ENE 3.5 mph - N/A   Overcast
11:55 AM 64.0 °F 44.4 °F 49% 30.31 in 10.0 mi NE 3.5 mph - N/A   Overcast
12:15 PM 64.9 °F 44.4 °F 47% 30.30 in 10.0 mi East 3.5 mph - N/A   Overcast
12:35 PM 65.3 °F 45.7 °F 49% 30.29 in 10.0 mi ENE 3.5 mph - N/A   Mostly Cloudy
12:55 PM 65.8 °F 43.9 °F 45% 30.28 in 10.0 mi SSE 3.5 mph - N/A   Scattered Clouds
1:15 PM 66.9 °F 44.8 °F 45% 30.28 in 10.0 mi WSW 4.6 mph - N/A   Clear
1:35 PM 66.9 °F 44.1 °F 44% 30.27 in 10.0 mi Calm Calm - N/A   Clear
1:55 PM 68.4 °F 45.9 °F 44% 30.26 in 10.0 mi Calm Calm - N/A   Clear
2:15 PM 68.2 °F 45.7 °F 44% 30.25 in 10.0 mi West 6.9 mph - N/A   Clear
2:35 PM 68.9 °F 46.0 °F 44% 30.24 in 10.0 mi SSE 4.6 mph - N/A   Clear
2:55 PM 70.0 °F 46.9 °F 44% 30.23 in 10.0 mi ESE 6.9 mph - N/A   Clear
3:15 PM 71.4 °F 47.8 °F 43% 30.22 in 10.0 mi SW 8.1 mph - N/A   Clear
3:35 PM 72.0 °F 47.1 °F 41% 30.21 in 10.0 mi SSW 5.8 mph - N/A   Clear
3:55 PM 72.1 °F 47.8 °F 42% 30.21 in 10.0 mi SW 8.1 mph - N/A   Clear
4:15 PM 72.9 °F 47.7 °F 41% 30.20 in 10.0 mi West 8.1 mph - N/A   Clear
4:35 PM 72.9 °F 47.5 °F 40% 30.20 in 10.0 mi South 6.9 mph - N/A   Clear
4:55 PM 73.0 °F 47.3 °F 40% 30.20 in 10.0 mi SE 4.6 mph - N/A   Clear
5:15 PM 72.7 °F 47.1 °F 40% 30.20 in 10.0 mi SW 3.5 mph - N/A   Clear
5:35 PM 72.9 °F 47.8 °F 41% 30.19 in 10.0 mi SSE 3.5 mph - N/A   Clear
5:55 PM 74.3 °F 49.1 °F 41% 30.19 in 10.0 mi South 4.6 mph - N/A   Clear
6:15 PM 73.9 °F 48.0 °F 40% 30.19 in 10.0 mi SSW 4.6 mph - N/A   Clear
6:35 PM 73.4 °F 48.0 °F 41% 30.19 in 10.0 mi South 5.8 mph - N/A   Clear
6:55 PM 72.7 °F 48.6 °F 42% 30.18 in 10.0 mi South 3.5 mph - N/A   Clear
7:15 PM 72.5 °F 49.6 °F 44% 30.19 in 10.0 mi South 4.6 mph - N/A   Clear
7:35 PM 71.6 °F 50.2 °F 47% 30.19 in 10.0 mi SSE 4.6 mph - N/A   Clear
7:55 PM 71.1 °F 50.9 °F 49% 30.20 in 10.0 mi SSE 3.5 mph - N/A   Clear
8:15 PM 70.5 °F 50.9 °F 50% 30.20 in 10.0 mi South 3.5 mph - N/A   Clear
8:35 PM 69.6 °F 50.9 °F 51% 30.20 in 10.0 mi Calm Calm - N/A   Clear
8:55 PM 68.0 °F 51.1 °F 55% 30.20 in 10.0 mi Calm Calm - N/A   Clear
9:15 PM 67.1 °F 51.3 °F 57% 30.20 in 10.0 mi Calm Calm - N/A   Clear
9:35 PM 67.3 °F 50.5 °F 55% 30.20 in 10.0 mi Calm Calm - N/A   Clear
9:55 PM 65.5 °F 52.3 °F 62% 30.21 in 10.0 mi Calm Calm - N/A   Clear
10:15 PM 62.1 °F 53.6 °F 74% 30.22 in 10.0 mi Calm Calm - N/A   Clear
10:35 PM 62.8 °F 53.4 °F 71% 30.22 in 10.0 mi Calm Calm - N/A   Clear
10:55 PM 62.6 °F 52.9 °F 70% 30.22 in 10.0 mi Calm Calm - N/A   Clear
11:15 PM 62.8 °F 52.7 °F 70% 30.23 in 10.0 mi Calm Calm - N/A   Clear
11:35 PM 60.8 °F 53.1 °F 76% 30.22 in 10.0 mi Calm Calm - N/A   Clear
11:55 PM 61.7 °F 53.1 °F 73% 30.22 in 10.0 mi Calm Calm - N/A   Clear